STARLINK-11689 [DTC] (64241 NORAD) Tracking and Keplerian Element Data

This shows tracking and keplerian element data for the satellite.

Feedback or suggestion? Click here.




ElementValue
Catalog64241
NameSTARLINK-11689 [DTC]
Epoch Orbit3269
Epoch Day353.8851036
Epoch Year2025
RAAN330.138
Inclination42.9987
Eccentricity8.01E-05
Argument of Perigee297.0301
Mean Anonmoly63.0485
Mean Motion15.70865626
Decay Rate0.00066884
L11 64241U 25119J 25353.88510360 .00066884 00000+0 52000-3 0 9995
L22 64241 42.9987 330.1380 0000801 297.0301 63.0485 15.70865626 32699



Live tracking and technical data element details for STARLINK-11689 [DTC] (NORAD 64241). STARLINK-11689 [DTC] can be tracked NOW for your location showing map with azimuth and elevation plus other details from your city location.







IsCatalogInMostPopularTable: catalog: 64241, numindb: 10
Update: records affected: 1



GetName: 64241 STARLINK-11689 [DTC]

Hit Count: updated at: Tue, 21 Apr 2026 20:29:33 GMT